Cloud_Cover
100 96 12 100 100 100 100 100 100 30 6 38 5 35 100 100 97 91 25 2 0 0 0 0 0 0 0 0 0 0 0 0 0 0 3 0 0 0 0 0 0 0 0 0 0
100 99 85 100 84 100 100 100 93 42 22 18 5 4 4 22 72 100 100 100 100 100 100 11 11 0 2 4 0 0 0 0 0 0 0 7 2 4 0 0 0 0 0 0 0
64 88 99 86 59 40 100 100 43 98 100 92 42 5 27 4 4 66 100 100 100 97 100 100 100 100 98 98 92 1 0 5 4 4 0 0 23 100 53 77 18 0 0 0 0
30 88 50 78 94 99 6 37 98 100 25 53 14 25 32 6 5 8 10 95 88 93 26 20 76 94 100 98 100 44 96 5 4 5 5 5 4 25 5 3 5 0 0 0 0
36 100 78 64 100 100 100 70 23 57 62 100 100 100 100 100 70 89 100 100 99 100 96 55 82 13 7 67 95 52 14 5 3 5 6 4 1 0 5 5 5 5 1 0 0
98 49 100 64 56 100 100 98 94 91 83 61 63 100 100 94 99 99 91 84 97 92 86 45 78 14 35 93 92 59 23 27 20 44 5 5 9 0 5 5 5 5 4 0 2
100 96 97 40 48 83 100 68 50 93 56 59 48 32 100 98 76 100 64 96 99 96 99 97 57 91 40 99 99 64 80 91 99 100 49 3 0 2 0 4 5 5 5 5 5
100 53 66 46 65 90 78 100 83 100 85 38 10 58 82 46 92 99 98 76 75 88 91 5 22 97 95 77 94 97 23 10 100 86 38 35 0 4 4 2 5 5 5 5 95
99 100 23 36 100 100 90 98 90 95 96 96 88 100 45 97 39 100 100 96 94 90 100 100 97 100 100 40 41 69 59 100 80 99 98 18 4 5 5 4 4 5 5 7 6
100 96 100 94 100 100 100 100 100 70 9 45 85 100 84 14 63 11 73 100 100 94 99 99 100 100 100 19 68 100 100 100 100 100 98 6 4 5 4 4 5 5 5 44 5
100 100 100 100 100 100 100 100 100 100 28 100 43 54 99 100 90 62 7 41 100 100 100 100 100 100 99 92 100 100 100 100 100 100 16 91 6 43 6 5 5 5 5 5 1
100 100 100 100 100 100 100 84 98 50 63 43 73 62 53 66 85 98 100 31 16 98 100 100 100 98 91 100 100 100 100 100 100 100 93 82 5 5 18 1 0 2 2 0 0
100 100 100 100 100 100 100 100 74 85 64 5 5 5 9 6 32 78 100 92 67 63 6 56 77 100 70 10 5 18 25 68 60 47 5 1 0 0 0 0 0 0 0 0 0
100 100 100 100 100 100 100 100 100 95 45 92 23 63 34 8 39 6 5 27 42 8 5 5 10 19 5 33 9 5 5 5 5 5 0 0 0 0 0 0 0 0 0 0 0
100 100 100 100 100 100 100 100 100 100 71 8 5 5 5 42 3 5 89 100 10 8 32 100 78 8 5 5 2 0 0 0 0 0 0 0 0 0 0 0 0 0 0 0 0
100 100 100 100 100 100 100 100 100 100 100 34 90 40 34 5 5 5 100 100 100 94 100 100 100 68 5 3 0 0 0 0 0 0 0 0 0 0 0 3 1 0 0 0 0
100 100 100 100 100 83 94 100 100 100 100 100 100 100 100 91 100 100 100 78 98 100 100 100 100 100 24 19 6 4 0 0 1 5 4 5 3 0 0 0 8 17 0 0 0
100 100 100 100 100 92 100 100 84 61 100 100 98 100 100 100 100 100 100 100 100 100 100 100 100 62 5 9 5 56 94 47 14 5 3 0 2 0 0 4 5 6 0 0 0
100 100 100 100 100 100 90 80 17 7 8 5 84 100 100 100 100 100 100 100 100 100 100 100 100 100 100 56 5 5 20 4 1 0 1 0 0 0 0 49 38 99 8 0 0
100 95 99 99 100 100 91 54 37 84 92 60 7 5 14 100 89 57 92 100 100 100 100 100 36 5 6 7 15 0 0 1 3 5 3 0 3 27 18 97 100 100 100 36 28
100 92 94 99 100 93 79 62 100 100 100 70 24 23 9 79 70 86 94 94 19 76 42 30 15 5 5 0 0 4 5 5 4 39 58 62 31 98 100 100 100 100 100 82 100
100 96 100 100 100 98 98 100 100 100 100 100 97 95 74 83 37 14 95 80 61 87 100 87 37 5 0 0 0 4 60 100 100 73 100 100 100 100 100 100 100 100 100 100 100
100 100 100 100 100 100 100 100 100 100 100 100 100 100 100 90 99 95 87 86 100 100 98 70 6 19 0 0 4 28 67 93 100 92 100 100 100 100 100 100 100 100 100 100 100
100 100 100 100 100 100 100 100 100 79 99 100 100 100 96 100 100 100 100 100 100 99 14 5 5 5 14 2 2 5 7 100 95 73 97 100 64 96 100 100 100 100 100 100 100
100 69 100 95 100 100 100 100 100 100 98 100 100 100 100 100 100 100 100 100 100 45 5 75 22 5 1 0 0 5 85 99 100 34 66 100 98 91 100 100 100 100 100 100 100
95 100 100 100 100 100 100 100 100 100 100 100 100 100 100 100 100 100 100 42 4 57 5 18 48 17 73 4 3 5 97 97 33 85 88 100 100 100 100 100 100 100 100 100 100
100 100 100 100 100 100 100 100 100 100 100 100 100 100 100 100 100 84 5 1 5 1 3 73 76 65 36 0 4 55 81 94 78 85 100 100 100 100 100 100 100 100 100 100 100